Location: Fort Worth, Tx
(32.7431°N, 97.3695°W)
Time: 23:53:40
(UTC-04:00)

A-11 Canister half - Pass Details

Date: 28 February 2024
Orbit: 1525 x 1683 km, 47.3° (Epoch: 24 April)

Event Time Altitude Azimuth Distance (km) Brightness Sun altitude
Exits shadow 05:04:45 32° 167° (SSE) 2,411 9.9 -37.2°
Drops below altitude 10° 05:09:25 10° 152° (SSE) 3,737 11.1 -36.2°
Sets 05:12:36 0° 148° (SSE) 4,738 11.8 -35.6°
